Weather in Theologos

Greece     36°22′27″N   28°02′11″E
temp.,
°C
wind,
m/s
gust,
m/s
humid.,
%
clouds,
%
prec.,
mm/h
press.,
hPa
HPBL,
m
29 january, sat
sat2923:00+5wnw228117 0.0 102228
02:00+5wnw118226 0.0 102223
05:00+4w008459 0.0 102120
08:00+5se1181100 0.0 102127
11:00+10ese3466100 0.0 1022832
14:00+11se4561100 0.0 10201191
17:00+10sse4873100 0.1 1019497
20:00+9se71173100 0.4 1019741
30 january, sun
sun3023:00+10se81174100 0.3 1018881
02:00+10se81182100 0.9 1017908
05:00+9sse51092100 6.2 1016794
08:00+9se6118587 7.9 1016809
11:00+11ese7107720 1.0 10171056
14:00+13sse676424 1.3 10161375
17:00+11se238117 0.3 101685
20:00+9se239176 0.7 101759
31 january, mon
mon3123:00+9se2394100 2.3 101771
02:00+10se249195 4.6 1016140
05:00+9wnw229380 2.1 101535
08:00+9nw339420 3.6 101698
11:00+12nw46727 0.6 10161137
14:00+13nw45540 0.6 1014958
17:00+10wnw35630 0.0 1014147
20:00+7wnw33710 0.0 101554
1 february, tue
tue123:00+7w22700 0.0 101526
02:00+6ssw11720 0.0 101418
05:00+6sse11745 0.0 101417
08:00+9se248172 0.1 101495
11:00+11sse5108998 0.3 1014685
14:00+12s6108688 1.9 1012678
17:00+12ssw61185100 1.8 1011795
20:00+11s61286100 1.9 1013581
2 february, wed
wed223:00+11s71286100 0.6 1013905
02:00+11s71285100 1.9 1012806
05:00+11s71382100 0.5 1010852
08:00+11s81378100 0.6 1011998
11:00+13s81370100 0.5 10101390
14:00+13s81364100 0.6 10081506
17:00+12s71266100 0.1 1007972
20:00+11s81372100 0.8 1007991